Wind_Speed
18 19 19 19 19 20 20 19 20 20 20 20 19 19 18 17 16 16 16 17 17 16 17 17 16 16 16 16 16 16 16 16 15 15 15 15 15 15 15 15 15 15 16
20 20 20 20 20 20 21 20 21 21 21 21 21 20 20 19 18 18 18 18 18 18 18 18 17 17 17 17 18 18 18 18 17 17 17 17 16 16 16 15 16 16 17
21 21 21 21 21 22 22 21 21 22 23 22 22 21 21 20 20 20 20 20 20 20 20 20 20 20 20 19 19 19 19 19 19 19 19 19 19 19 18 18 18 18 18
22 22 23 23 23 24 24 23 23 23 23 23 22 22 22 22 22 22 22 22 22 22 21 21 22 21 21 21 20 20 20 21 21 21 21 21 21 21 20 20 20 20 20
25 25 25 25 26 26 25 25 24 25 24 24 24 23 23 24 23 24 24 23 23 23 23 23 23 23 22 22 22 22 22 22 23 23 22 22 22 22 21 21 22 21 21
26 27 27 27 27 27 26 25 25 26 26 26 25 25 25 25 24 25 25 24 24 25 25 25 24 24 24 24 24 25 24 24 25 25 24 23 23 23 23 23 23 23 23
28 28 28 28 28 28 28 27 27 27 27 27 27 27 27 26 26 26 27 27 27 27 27 26 26 26 26 26 26 26 27 27 27 27 26 25 25 25 25 25 24 25 25
29 28 29 29 29 29 28 28 29 30 29 28 28 28 28 28 28 29 29 29 29 28 28 28 27 27 27 27 27 27 27 28 28 28 28 27 27 27 27 27 26 26 26
29 29 30 29 29 29 30 30 31 31 30 30 29 28 29 29 30 30 30 30 30 30 30 29 28 28 28 29 29 28 29 29 30 30 29 29 29 30 30 29 29 27 27
30 31 30 31 31 31 31 31 31 31 30 30 30 30 30 30 30 30 30 30 30 30 30 30 30 30 30 30 30 30 30 30 31 31 31 31 31 31 31 31 30 30 29
31 31 31 31 31 32 32 32 32 32 31 31 31 31 31 32 32 32 32 32 31 31 31 31 31 31 31 32 32 32 32 33 32 33 33 33 32 32 32 32 32 31 31
31 31 31 31 32 32 32 32 32 32 31 32 32 32 32 33 33 33 33 33 33 32 31 31 31 32 31 32 32 33 33 34 33 33 33 32 33 32 32 32 31 31 31
31 32 31 31 31 32 32 32 32 32 32 32 32 32 32 32 32 32 33 33 33 32 31 32 32 32 32 32 32 33 33 34 34 34 33 32 33 33 32 32 32 32 32
31 31 31 31 32 32 33 33 33 34 34 34 33 33 32 32 32 32 32 32 32 32 32 32 32 31 31 31 32 33 33 33 33 33 33 32 32 32 32 31 31 31 31
32 32 32 32 32 33 33 33 34 35 34 34 34 33 33 33 33 33 33 32 33 33 32 31 32 32 32 32 32 32 32 32 31 32 32 32 32 31 31 31 31 31 31
32 33 33 33 34 35 34 34 34 34 34 34 35 35 34 34 33 33 33 32 33 32 32 31 31 31 32 32 32 33 33 32 32 32 32 32 32 31 30 31 31 31 31
33 33 34 34 35 35 35 35 34 35 35 34 35 34 34 34 34 33 32 32 32 31 31 31 31 31 32 32 32 32 32 32 32 32 32 32 31 31 31 31 31 32 32
33 33 34 34 35 35 35 36 36 36 35 35 34 33 32 33 33 32 32 31 31 30 30 31 30 30 31 31 31 32 31 31 32 32 32 31 31 31 31 31 31 31 31
33 33 34 34 35 35 35 36 36 36 35 34 33 32 32 32 32 31 31 31 30 30 30 30 29 29 29 30 30 30 30 30 31 31 31 31 31 31 31 30 30 30 30
33 34 34 35 35 35 35 35 36 36 35 34 32 32 32 32 31 31 31 31 30 29 29 29 29 29 29 29 30 30 30 29 29 29 29 30 30 30 30 30 29 29 29
34 34 34 35 35 35 35 35 35 35 34 33 32 32 33 33 33 32 32 30 29 29 29 29 29 29 29 30 30 29 29 28 29 29 29 29 29 29 29 30 29 29 28
34 34 35 34 34 34 34 35 35 35 34 33 32 32 32 32 32 31 30 29 29 29 29 29 29 29 29 28 29 29 27 27 27 27 27 27 26 27 28 28 28 28 28
33 33 33 33 34 34 34 34 33 33 33 33 33 33 33 32 31 30 29 29 29 29 29 30 30 30 29 28 27 27 26 26 25 25 26 26 26 27 27 27 27 27 27
31 32 32 33 33 33 33 33 33 33 33 33 33 32 32 31 31 30 29 29 29 30 29 30 30 30 28 27 27 27 27 27 26 25 25 26 26 26 27 27 27 27 27
30 30 31 31 32 32 32 32 32 32 32 32 32 31 31 30 30 30 29 29 29 29 29 29 28 28 28 28 27 27 27 26 26 26 26 26 26 25 26 26 26 26 26
29 29 30 30 31 31 31 32 32 32 31 31 30 30 30 29 28 28 28 29 29 29 29 28 28 27 27 27 27 27 27 27 27 27 27 26 26 25 25 25 25 25 25
Wind_Direction
316 317 317 317 319 320 318 316 316 315 314 315 315 313 310 308 306 306 305 305 304 303 301 298 294 291 289 286 285 286 285 286 286 286 287 287 286 285 282 280 280 279 280
314 314 314 314 315 316 318 317 314 313 312 310 310 309 307 304 303 301 300 301 303 302 299 296 292 287 286 284 284 284 283 284 285 285 285 284 283 283 279 277 278 280 281
312 313 312 312 312 313 314 314 314 313 311 308 307 306 304 302 302 300 298 298 299 300 297 293 291 288 285 281 281 282 281 281 282 283 282 282 280 280 277 276 277 279 281
308 309 309 308 308 309 310 310 311 311 310 309 307 305 302 300 299 298 298 297 297 297 296 292 289 288 287 282 279 279 280 280 280 280 279 280 279 279 276 275 277 278 278
304 306 307 308 308 306 306 306 307 307 306 306 304 304 302 299 297 297 296 295 295 295 294 292 289 287 285 284 282 279 278 278 279 278 279 280 279 278 276 276 276 275 277
304 305 306 307 307 307 306 303 304 305 304 303 302 302 300 298 297 296 295 294 294 293 292 290 288 286 285 282 281 282 279 278 278 278 278 279 279 279 278 277 276 276 276
302 302 303 304 303 304 304 302 302 303 303 303 303 301 299 297 295 295 295 294 293 292 291 289 287 286 285 283 280 280 279 277 276 276 276 275 277 278 278 277 276 278 278
301 300 302 302 301 303 305 303 302 301 301 301 301 300 299 298 296 295 295 295 293 292 290 288 286 285 284 283 280 279 280 279 276 275 276 275 276 277 278 277 276 276 277
300 299 300 301 303 304 304 302 302 302 300 300 301 299 299 299 297 296 295 294 293 292 290 287 285 285 283 282 280 279 278 278 278 277 277 277 277 277 277 277 277 276 276
297 297 298 300 302 303 303 303 302 302 300 299 300 299 298 299 298 297 296 294 293 292 290 287 285 283 282 280 279 278 278 278 277 277 277 277 277 278 278 277 277 276 277
297 297 298 299 301 302 302 302 302 302 301 300 300 298 298 297 298 298 296 295 294 292 289 287 285 283 281 279 278 278 279 278 277 276 276 277 278 279 279 277 276 275 275
296 296 296 298 299 301 301 302 302 302 301 301 300 299 298 297 297 297 296 295 295 293 291 288 287 285 282 280 278 278 279 279 279 278 278 278 279 280 280 277 274 275 275
295 296 295 297 298 300 301 301 302 302 300 301 301 300 299 299 298 296 295 295 294 294 292 290 288 285 283 281 279 278 279 279 281 280 278 278 280 280 279 276 274 275 276
295 296 296 297 298 299 299 300 301 301 300 301 301 301 301 300 300 299 297 296 295 294 292 290 287 285 283 281 279 278 278 279 280 280 279 277 278 279 279 276 275 276 275
294 295 296 297 297 298 298 299 300 300 301 301 301 301 301 300 300 299 298 297 296 294 292 289 286 284 282 281 280 280 279 278 278 279 278 279 278 278 277 276 276 276 276
294 294 295 295 296 297 298 298 299 300 300 300 301 302 301 301 300 299 298 298 297 295 293 291 288 285 284 281 281 280 279 279 277 277 279 278 278 278 277 277 277 276 275
294 295 294 294 295 296 297 298 299 300 300 300 301 302 301 301 300 298 298 297 296 295 294 293 291 287 285 284 283 282 279 277 277 276 278 277 277 276 277 277 276 276 274
293 295 296 296 296 296 297 298 300 301 301 300 301 301 301 302 302 301 299 297 296 295 295 294 291 289 287 285 284 282 279 278 278 278 278 277 276 276 276 275 275 275 275
293 294 295 297 297 297 298 299 300 301 302 302 301 301 301 301 301 302 301 299 296 296 296 296 294 292 289 287 285 283 281 280 280 279 278 278 278 278 277 275 275 276 275
293 294 295 296 298 298 299 299 300 300 301 301 300 300 301 301 301 301 300 299 298 297 296 297 296 294 293 291 289 286 284 281 280 279 278 278 278 277 277 275 275 276 275
293 294 295 296 298 299 300 300 300 299 301 301 301 301 300 301 302 302 301 298 297 297 297 296 295 295 295 293 292 288 285 284 282 279 279 279 279 277 276 275 276 275 274
293 295 296 296 297 299 300 301 301 300 300 301 301 301 302 302 302 302 301 300 300 298 298 298 298 297 296 296 296 293 291 286 283 281 281 279 279 279 278 277 277 273 273
294 295 297 297 299 300 301 301 301 301 301 301 300 301 301 300 301 301 301 301 302 301 299 297 298 298 296 295 294 293 291 288 286 284 282 281 282 282 281 279 278 275 274
295 296 298 299 300 300 302 302 301 301 302 302 301 300 300 300 300 299 299 299 300 300 300 299 299 298 295 295 295 295 293 289 286 286 285 283 282 281 280 279 278 276 277
298 299 300 301 301 302 303 303 301 301 302 302 301 301 300 300 299 298 298 299 300 300 300 300 299 298 296 296 294 294 293 290 287 286 284 283 283 281 280 279 279 278 277
300 300 302 303 303 303 303 303 302 301 301 301 302 301 300 299 299 299 299 299 300 299 299 298 298 298 297 295 294 294 293 290 286 285 283 283 283 282 280 280 280 278 276
Height
5891 5889 5886 5884 5882 5880 5878 5876 5874 5872 5870 5868 5866 5864 5863 5861 5859 5858 5856 5855 5853 5852 5850 5849 5849 5848 5847 5847 5847 5846 5846 5846 5845 5846 5845 5845 5844 5844 5844 5843 5843 5843 5842
5887 5885 5883 5881 5879 5877 5875 5872 5870 5868 5866 5864 5862 5860 5859 5857 5856 5854 5853 5851 5849 5848 5846 5845 5845 5844 5843 5843 5842 5842 5841 5841 5841 5841 5840 5840 5839 5839 5839 5839 5838 5838 5837
5884 5882 5879 5877 5875 5873 5871 5868 5866 5864 5862 5860 5858 5856 5854 5853 5851 5849 5848 5847 5845 5844 5842 5841 5840 5839 5838 5838 5837 5837 5836 5836 5835 5835 5835 5834 5834 5834 5834 5833 5833 5833 5832
5880 5878 5875 5873 5871 5869 5866 5864 5862 5859 5857 5855 5853 5851 5849 5847 5846 5844 5843 5841 5840 5838 5837 5836 5835 5834 5832 5831 5831 5831 5830 5830 5829 5829 5829 5829 5828 5828 5828 5828 5827 5827 5826
5875 5873 5871 5868 5866 5863 5861 5859 5857 5854 5852 5850 5847 5845 5843 5841 5840 5838 5836 5835 5834 5833 5831 5830 5829 5827 5826 5825 5825 5824 5823 5823 5823 5822 5822 5822 5822 5821 5821 5821 5820 5820 5820
5870 5868 5865 5863 5860 5857 5855 5853 5851 5849 5846 5844 5842 5839 5837 5835 5833 5831 5830 5828 5827 5826 5824 5823 5822 5821 5820 5819 5818 5817 5816 5816 5815 5815 5815 5815 5815 5814 5814 5814 5813 5812 5813
5864 5861 5859 5856 5854 5851 5849 5847 5844 5842 5840 5837 5835 5832 5830 5828 5826 5824 5822 5820 5819 5817 5816 5815 5814 5813 5812 5812 5811 5810 5809 5808 5807 5807 5807 5807 5807 5806 5806 5806 5805 5805 5805
5857 5854 5850 5849 5847 5844 5842 5840 5837 5835 5832 5830 5828 5825 5823 5821 5818 5816 5814 5812 5810 5808 5807 5806 5805 5805 5804 5804 5803 5802 5801 5800 5799 5798 5798 5798 5798 5798 5798 5797 5797 5797 5797
5851 5848 5845 5842 5840 5837 5835 5832 5830 5827 5824 5822 5820 5818 5815 5813 5810 5808 5805 5803 5801 5800 5798 5797 5796 5796 5795 5794 5794 5793 5793 5792 5791 5790 5790 5789 5789 5789 5789 5788 5788 5788 5788
5844 5841 5838 5836 5833 5830 5827 5825 5822 5819 5817 5814 5812 5810 5808 5805 5802 5800 5797 5795 5793 5791 5789 5787 5786 5786 5785 5784 5784 5784 5784 5783 5782 5782 5781 5781 5780 5779 5779 5779 5779 5779 5779
5836 5834 5831 5828 5825 5822 5820 5817 5814 5812 5809 5807 5804 5802 5799 5797 5794 5791 5788 5786 5784 5781 5780 5778 5777 5776 5776 5775 5774 5774 5773 5773 5772 5772 5771 5771 5770 5769 5769 5769 5769 5769 5769
5829 5826 5823 5821 5818 5815 5812 5809 5806 5804 5801 5798 5796 5793 5790 5788 5785 5782 5779 5776 5774 5772 5770 5769 5767 5766 5766 5765 5764 5764 5763 5763 5762 5762 5761 5761 5760 5760 5759 5759 5758 5758 5758
5821 5818 5816 5813 5810 5807 5804 5801 5799 5796 5793 5790 5787 5784 5782 5779 5776 5773 5770 5767 5764 5762 5761 5759 5758 5757 5756 5755 5754 5754 5753 5752 5752 5751 5751 5751 5750 5750 5749 5749 5749 5748 5748
5813 5810 5808 5805 5802 5800 5797 5793 5790 5787 5784 5781 5778 5776 5773 5770 5767 5764 5761 5758 5755 5753 5751 5750 5748 5747 5746 5745 5744 5744 5743 5742 5742 5741 5741 5741 5740 5739 5739 5739 5739 5738 5739
5805 5802 5799 5797 5794 5791 5788 5785 5782 5779 5775 5772 5769 5767 5764 5760 5757 5754 5751 5749 5746 5744 5741 5740 5738 5737 5736 5735 5734 5733 5733 5732 5732 5731 5731 5730 5730 5729 5728 5728 5728 5728 5728
5796 5794 5791 5788 5786 5783 5780 5777 5774 5771 5767 5764 5760 5757 5754 5751 5748 5745 5742 5740 5737 5734 5732 5730 5728 5727 5726 5725 5724 5723 5722 5722 5721 5721 5720 5719 5719 5719 5718 5718 5718 5718 5718
5787 5785 5782 5779 5776 5774 5771 5768 5765 5762 5759 5755 5752 5749 5745 5742 5739 5735 5733 5730 5728 5725 5723 5721 5719 5718 5716 5715 5713 5712 5712 5711 5710 5710 5709 5709 5708 5708 5708 5708 5707 5706 5707
5779 5776 5773 5770 5767 5764 5762 5759 5755 5753 5750 5746 5743 5739 5736 5733 5729 5726 5724 5722 5719 5717 5715 5712 5710 5708 5707 5705 5704 5702 5701 5701 5700 5699 5699 5698 5698 5698 5697 5697 5697 5696 5696
5770 5767 5765 5762 5758 5755 5753 5750 5746 5743 5740 5737 5734 5731 5727 5724 5721 5718 5715 5713 5711 5709 5706 5704 5702 5700 5698 5696 5694 5693 5692 5691 5690 5690 5689 5688 5688 5687 5687 5687 5687 5686 5686
5761 5758 5756 5753 5750 5747 5744 5741 5737 5734 5731 5728 5725 5722 5719 5716 5713 5710 5707 5705 5702 5700 5698 5696 5693 5691 5689 5687 5685 5684 5683 5682 5681 5680 5679 5678 5677 5677 5676 5676 5676 5676 5676
5752 5749 5747 5744 5741 5738 5735 5732 5729 5725 5722 5719 5716 5713 5710 5708 5705 5702 5699 5696 5694 5691 5689 5687 5685 5683 5680 5678 5676 5674 5673 5671 5670 5669 5668 5668 5667 5667 5666 5666 5666 5666 5666
5743 5740 5738 5735 5732 5730 5726 5723 5720 5717 5714 5711 5708 5705 5702 5699 5696 5693 5690 5688 5685 5683 5681 5678 5676 5674 5671 5669 5667 5665 5663 5662 5660 5660 5659 5658 5658 5657 5657 5656 5656 5656 5656
5734 5731 5728 5726 5723 5720 5718 5715 5711 5708 5705 5702 5699 5696 5694 5691 5688 5685 5682 5680 5677 5674 5672 5670 5668 5665 5663 5660 5658 5656 5654 5653 5651 5650 5650 5649 5649 5648 5647 5647 5646 5646 5646
5725 5723 5720 5718 5715 5712 5709 5706 5703 5700 5697 5694 5691 5688 5685 5682 5679 5677 5674 5672 5669 5667 5664 5662 5659 5657 5654 5652 5649 5647 5645 5643 5642 5642 5641 5640 5639 5639 5638 5637 5637 5636 5636
5717 5715 5712 5709 5706 5703 5700 5697 5695 5692 5689 5685 5682 5680 5677 5674 5671 5669 5666 5664 5661 5659 5656 5654 5651 5648 5646 5643 5641 5639 5636 5634 5633 5632 5631 5631 5630 5629 5628 5628 5627 5627 5626
5710 5707 5704 5701 5698 5695 5692 5689 5686 5683 5680 5677 5674 5671 5669 5666 5663 5660 5658 5656 5653 5651 5648 5646 5643 5640 5638 5635 5633 5630 5628 5626 5624 5623 5622 5621 5621 5620 5619 5619 5618 5617 5617